Orange, MA

3:53 AM EDT on September 23, 2017 (GMT -0400)
Orange Municipal

Weather History for KORE - July, 2013

Change the Weather History Date:

Sunday, July 7, 2013

  Actual Average Record
Temperature  
Mean Temperature 76 °F -  
Max Temperature 90 °F 78 °F 98 °F (2010)
Min Temperature 64 °F 54 °F 46 °F (2001)
Cooling Degree Days 12    
Growing Degree Days 26 (Base 50)    
Moisture  
Dew Point 68 °F    
Average Humidity 79    
Maximum Humidity 97    
Minimum Humidity 50    
Precipitation  
Precipitation 0.00 in - - ()
Sea Level Pressure  
Sea Level Pressure 30.00 in    
Wind  
Wind Speed 2 mph (South)    
Max Wind Speed 8 mph    
Max Gust Speed -    
Visibility 10 miles    
Events Thunderstorm    
Averages and records for this station are not official NWS values.
T = Trace of Precipitation, MM = Missing Value Source: NWS Daily Summary

Daily Weather History Graph

Daily Weather History Graph

Search for Another Location

Airport or City:

Trip Planner

Search our weather history database for the weather conditions in past years. The results will help you decide how hot, cold, wet, or windy it might be!

Date:

Astronomy

Jul. 07, 2013 Rise Set
Actual Time 5:19 AM EDT 8:28 PM EDT
Civil Twilight 4:44 AM EDT 9:03 PM EDT
Nautical Twilight 4:00 AM EDT 9:47 PM EDT
Astronomical Twilight 3:07 AM EDT 10:40 PM EDT
Moon 4:54 AM EDT (7/7) 7:49 PM EDT (7/7)
Length of Visible Light 16h 18m
Length of Day
15h 09m
Waning Crescent, 0% of the Moon is Illuminated
Jul 7
Waning Crescent
Jul 8
New
Jul 15
First Quarter
Jul 22
Full
Jul 29
Last Quarter

Hourly Weather History & Observations

Time (EDT) Temp. Heat Index Dew Point Humidity Pressure Visibility Wind Dir Wind Speed Gust Speed Precip Events Conditions
12:52 AM 69.1 °F - 66.0 °F 90% 30.05 in 10.0 mi Calm Calm - N/A   Clear
1:52 AM 68.0 °F - 66.0 °F 93% 30.05 in 9.0 mi Calm Calm - N/A   Clear
2:52 AM 66.9 °F - 64.9 °F 93% 30.04 in 9.0 mi Calm Calm - N/A   Clear
3:52 AM 66.9 °F - 64.9 °F 93% 30.04 in 9.0 mi Calm Calm - N/A   Clear
4:52 AM 64.9 °F - 64.0 °F 97% 30.03 in 8.0 mi Calm Calm - N/A   Clear
5:52 AM 66.0 °F - 64.0 °F 93% 30.03 in 7.0 mi Calm Calm - N/A   Clear
6:52 AM 68.0 °F - 64.9 °F 90% 30.04 in 10.0 mi Calm Calm - N/A   Clear
7:52 AM 72.0 °F - 66.0 °F 81% 30.04 in 10.0 mi Calm Calm - N/A   Clear
8:52 AM 77.0 °F - 66.9 °F 71% 30.04 in 10.0 mi Calm Calm - N/A   Clear
9:52 AM 80.1 °F 83.2 °F 70.0 °F 71% 30.03 in 10.0 mi South 6.9 mph - N/A   Clear
10:52 AM 80.1 °F 83.2 °F 70.0 °F 71% 30.03 in 10.0 mi South 3.5 mph - N/A   Partly Cloudy
11:52 AM 86.0 °F 90.1 °F 69.1 °F 57% 30.01 in 10.0 mi Variable 4.6 mph - N/A   Partly Cloudy
12:52 PM 87.1 °F 90.6 °F 68.0 °F 53% 30.00 in 10.0 mi Variable 3.5 mph - N/A   Clear
1:52 PM 89.1 °F 92.9 °F 68.0 °F 50% 29.98 in 10.0 mi SSW 5.8 mph - N/A   Partly Cloudy
2:52 PM 88.0 °F 93.8 °F 71.1 °F 57% 29.95 in 10.0 mi South 8.1 mph - N/A Thunderstorm Partly Cloudy
3:52 PM 81.0 °F 83.8 °F 68.0 °F 65% 29.96 in 10.0 mi South 8.1 mph - N/A Thunderstorm Scattered Clouds
4:49 PM 78.8 °F - 69.8 °F 74% 29.97 in 10.0 mi SSW 4.6 mph - N/A   Partly Cloudy
4:52 PM 78.1 °F - 71.1 °F 79% 29.97 in 10.0 mi South 5.8 mph - N/A   Partly Cloudy
5:52 PM 75.9 °F - 71.1 °F 85% 29.95 in 10.0 mi South 5.8 mph - N/A   Clear
6:52 PM 78.1 °F - 70.0 °F 76% 29.94 in 10.0 mi South 6.9 mph - N/A   Clear
7:52 PM 77.0 °F - 71.1 °F 82% 29.95 in 10.0 mi SSE 4.6 mph - N/A   Clear
8:52 PM 75.0 °F - 71.1 °F 87% 29.95 in 10.0 mi South 3.5 mph - N/A   Scattered Clouds
9:52 PM 73.9 °F - 71.1 °F 91% 29.96 in 10.0 mi SSW 4.6 mph - N/A   Mostly Cloudy
10:52 PM 73.9 °F - 71.1 °F 91% 29.95 in 10.0 mi Calm Calm - N/A   Scattered Clouds
11:52 PM 72.0 °F - 70.0 °F 93% 29.94 in 10.0 mi Calm Calm - N/A   Clear